Sparta, TN

11:31 PM CST on February 12, 2016 (GMT -0600)
Upper Cumberland Regional

Weather History for KSRB - September, 2013

Change the Weather History Date:

Sunday, September 8, 2013

  Actual Average (KCSV) Record (KCSV)
Temperature  
Mean Temperature 74 °F 70 °F  
Max Temperature 87 °F 80 °F 91 °F (1955)
Min Temperature 60 °F 60 °F 47 °F (1956)
Degree Days  
Heating Degree Days 0    
Month to date heating degree days  
Since 1 July heating degree days  
Cooling Degree Days 8    
Month to date cooling degree days  
Year to date cooling degree days  
Growing Degree Days 24 (Base 50)    
Moisture  
Dew Point 66 °F    
Average Humidity 81    
Maximum Humidity 100    
Minimum Humidity 46    
Precipitation  
Precipitation 0.00 in 0.13 in 0.86 in (1973)
Month to date precipitation 0.97  
Year to date precipitation 39.09  
Sea Level Pressure  
Sea Level Pressure 30.02 in    
Wind  
Wind Speed 0 mph (WNW)    
Max Wind Speed 5 mph    
Max Gust Speed -    
Visibility 9 miles    
Events      
T = Trace of Precipitation, MM = Missing Value Source: NWS Daily Summary

Daily Weather History Graph

Daily Weather History Graph

Search for Another Location

Airport or City:

Trip Planner

Search our weather history database for the weather conditions in past years. The results will help you decide how hot, cold, wet, or windy it might be!

Date:

Astronomy

Sep. 08, 2013 Rise Set
Actual Time 6:19 AM CDT 6:59 PM CDT
Civil Twilight 5:53 AM CDT 7:25 PM CDT
Nautical Twilight 5:22 AM CDT 7:55 PM CDT
Astronomical Twilight 4:51 AM CDT 8:26 PM CDT
Moon 9:28 AM CDT (9/8) 8:42 PM CDT (9/8)
Length of Visible Light 13h 31m
Length of Day
12h 39m
Waxing Crescent, 11% of the Moon is Illuminated
Sep 8
Waxing Crescent
Sep 12
First Quarter
Sep 19
Full
Sep 26
Last Quarter
Oct 4
New

Hourly Weather History & Observations

Time (CDT) Temp. Heat Index Dew Point Humidity Pressure Visibility Wind Dir Wind Speed Gust Speed Precip Events Conditions
12:35 AM 62.6 °F - 62.6 °F 100% 30.05 in 4.0 mi Calm Calm - N/A   Clear
12:55 AM 62.6 °F - 62.6 °F 100% 30.05 in 8.0 mi Calm Calm - N/A   Clear
1:15 AM 62.6 °F - 62.6 °F 100% 30.04 in 6.0 mi Calm Calm - N/A   Clear
1:35 AM 62.6 °F - 62.6 °F 100% 30.04 in 10.0 mi Calm Calm - N/A   Clear
1:55 AM 62.6 °F - 62.6 °F 100% 30.04 in 6.0 mi Calm Calm - N/A   Clear
2:15 AM 62.6 °F - 62.6 °F 100% 30.03 in 9.0 mi Calm Calm - N/A   Clear
2:35 AM 64.4 °F - 62.6 °F 94% 30.02 in 6.0 mi Calm Calm - N/A   Clear
2:55 AM 62.6 °F - 62.6 °F 100% 30.03 in 9.0 mi Calm Calm - N/A   Clear
3:15 AM 62.6 °F - 60.8 °F 94% 30.03 in 9.0 mi Calm Calm - N/A   Clear
3:35 AM 62.6 °F - 60.8 °F 94% 30.03 in 6.0 mi Calm Calm - N/A   Clear
3:55 AM 62.6 °F - 60.8 °F 94% 30.02 in 1.8 mi Calm Calm - N/A   Clear
4:15 AM 60.8 °F - 59.0 °F 94% 30.02 in 5.0 mi Calm Calm - N/A   Clear
4:35 AM 60.8 °F - 60.8 °F 100% 30.02 in 8.0 mi Calm Calm - N/A   Clear
4:55 AM 60.8 °F - 60.8 °F 100% 30.03 in 0.5 mi Calm Calm - N/A   Unknown
5:15 AM 60.8 °F - 60.8 °F 100% 30.03 in 0.8 mi Calm Calm - N/A   Mostly Cloudy
5:35 AM 62.6 °F - 62.6 °F 100% 30.03 in 8.0 mi Calm Calm - N/A   Mostly Cloudy
5:55 AM 64.4 °F - 62.6 °F 94% 30.03 in 9.0 mi Calm Calm - N/A   Mostly Cloudy
6:15 AM 64.4 °F - 62.6 °F 94% 30.04 in 10.0 mi Calm Calm - N/A   Partly Cloudy
6:35 AM 64.4 °F - 62.6 °F 94% 30.05 in 10.0 mi Calm Calm - N/A   Mostly Cloudy
6:55 AM 66.2 °F - 64.4 °F 94% 30.05 in 10.0 mi Calm Calm - N/A   Scattered Clouds
7:15 AM 66.2 °F - 64.4 °F 94% 30.05 in 10.0 mi Calm Calm - N/A   Clear
7:35 AM 68.0 °F - 66.2 °F 94% 30.04 in 10.0 mi Calm Calm - N/A   Clear
7:55 AM 69.8 °F - 66.2 °F 88% 30.04 in 10.0 mi Calm Calm - N/A   Clear
8:15 AM 69.8 °F - 66.2 °F 88% 30.04 in 10.0 mi Calm Calm - N/A   Clear
8:35 AM 71.6 °F - 66.2 °F 83% 30.04 in 10.0 mi Calm Calm - N/A   Clear
8:55 AM 73.4 °F - 68.0 °F 83% 30.04 in 10.0 mi SW 3.5 mph - N/A   Clear
9:15 AM 73.4 °F - 68.0 °F 83% 30.05 in 10.0 mi Calm Calm - N/A   Clear
9:35 AM 75.2 °F - 68.0 °F 78% 30.06 in 10.0 mi Calm Calm - N/A   Clear
9:55 AM 75.2 °F - 69.8 °F 83% 30.06 in 10.0 mi Calm Calm - N/A   Clear
10:15 AM 75.2 °F - 69.8 °F 83% 30.05 in 10.0 mi Calm Calm - N/A   Clear
10:35 AM 78.8 °F - 68.0 °F 69% 30.06 in 10.0 mi Calm Calm - N/A   Clear
10:55 AM 82.4 °F 85.4 °F 68.0 °F 62% 30.05 in 10.0 mi Calm Calm - N/A   Clear
11:15 AM 82.4 °F 86.3 °F 69.8 °F 66% 30.05 in 10.0 mi Calm Calm - N/A   Clear
11:35 AM 84.2 °F 88.4 °F 69.8 °F 62% 30.04 in 10.0 mi WNW 4.6 mph - N/A   Clear
11:55 AM 84.2 °F 88.4 °F 69.8 °F 62% 30.04 in 10.0 mi Variable 3.5 mph - N/A   Clear
12:15 PM 82.4 °F 86.3 °F 69.8 °F 66% 30.04 in 10.0 mi Calm Calm - N/A   Scattered Clouds
12:35 PM 82.4 °F 85.4 °F 68.0 °F 62% 30.04 in 10.0 mi Calm Calm - N/A   Partly Cloudy
12:55 PM 82.4 °F 85.4 °F 68.0 °F 62% 30.04 in 10.0 mi NNW 4.6 mph - N/A   Clear
1:15 PM 84.2 °F 88.4 °F 69.8 °F 62% 30.03 in 10.0 mi Calm Calm - N/A   Partly Cloudy
1:35 PM 82.4 °F 85.4 °F 68.0 °F 62% 30.03 in 10.0 mi NE 3.5 mph - N/A   Mostly Cloudy
1:55 PM 82.4 °F 83.9 °F 64.4 °F 54% 30.02 in 10.0 mi Calm Calm - N/A   Partly Cloudy
2:15 PM 86.0 °F 87.3 °F 64.4 °F 48% 30.01 in 10.0 mi Calm Calm - N/A   Clear
2:35 PM 87.8 °F 89.4 °F 64.4 °F 46% 30.01 in 10.0 mi NW 3.5 mph - N/A   Clear
2:55 PM 87.8 °F 90.4 °F 66.2 °F 49% 30.01 in 10.0 mi Variable 3.5 mph - N/A   Clear
3:15 PM 87.8 °F 89.4 °F 64.4 °F 46% 30.00 in 10.0 mi Calm Calm - N/A   Clear
3:35 PM 87.8 °F 89.4 °F 64.4 °F 46% 30.00 in 10.0 mi West 3.5 mph - N/A   Clear
3:55 PM 87.8 °F 89.4 °F 64.4 °F 46% 30.00 in 10.0 mi Calm Calm - N/A   Clear
4:15 PM 87.8 °F 89.4 °F 64.4 °F 46% 29.99 in 10.0 mi West 3.5 mph - N/A   Clear
4:35 PM 87.8 °F 90.4 °F 66.2 °F 49% 29.99 in 10.0 mi Calm Calm - N/A   Clear
4:55 PM 86.0 °F 88.2 °F 66.2 °F 51% 29.99 in 10.0 mi Calm Calm - N/A   Clear
5:15 PM 86.0 °F 88.2 °F 66.2 °F 51% 29.99 in 10.0 mi Calm Calm - N/A   Clear
5:35 PM 82.4 °F 87.2 °F 71.6 °F 70% 29.99 in 10.0 mi Calm Calm - N/A   Clear
5:55 PM 80.6 °F 83.9 °F 69.8 °F 70% 29.99 in 7.0 mi Calm Calm - N/A   Clear
6:15 PM 80.6 °F 83.9 °F 69.8 °F 70% 29.98 in 10.0 mi Calm Calm - N/A   Clear
6:35 PM 78.8 °F - 69.8 °F 74% 29.98 in 10.0 mi Calm Calm - N/A   Clear
6:55 PM 75.2 °F - 69.8 °F 83% 29.98 in 10.0 mi Calm Calm - N/A   Clear
7:15 PM 73.4 °F - 69.8 °F 88% 29.99 in 10.0 mi Calm Calm - N/A   Clear
7:35 PM 71.6 °F - 69.8 °F 94% 29.99 in 10.0 mi Calm Calm - N/A   Clear
7:55 PM 71.6 °F - 69.8 °F 94% 30.00 in 10.0 mi Calm Calm - N/A   Clear
8:15 PM 71.6 °F - 69.8 °F 94% 30.00 in 10.0 mi Calm Calm - N/A   Clear
8:35 PM 71.6 °F - 69.8 °F 94% 30.01 in 10.0 mi Calm Calm - N/A   Clear
8:55 PM 71.6 °F - 69.8 °F 94% 30.01 in 10.0 mi Calm Calm - N/A   Clear
9:15 PM 71.6 °F - 69.8 °F 94% 30.02 in 10.0 mi Calm Calm - N/A   Clear
9:35 PM 69.8 °F - 68.0 °F 94% 30.02 in 10.0 mi Calm Calm - N/A   Clear
9:55 PM 69.8 °F - 68.0 °F 94% 30.02 in 10.0 mi Calm Calm - N/A   Clear
10:15 PM 68.0 °F - 66.2 °F 94% 30.03 in 7.0 mi Calm Calm - N/A   Clear
10:35 PM 66.2 °F - 66.2 °F 100% 30.03 in 5.0 mi Calm Calm - N/A   Clear
10:55 PM 66.2 °F - 66.2 °F 100% 30.03 in 4.0 mi Calm Calm - N/A   Clear
11:15 PM 66.2 °F - 64.4 °F 94% 30.03 in 2.5 mi Calm Calm - N/A   Clear
11:35 PM 66.2 °F - 66.2 °F 100% 30.03 in 3.0 mi Calm Calm - N/A   Clear
11:55 PM 66.2 °F - 64.4 °F 94% 30.04 in 2.5 mi Calm Calm - N/A   Clear